Location: Alvis C Story Elementary School
(33.0968°N, 96.6364°W)
Time: 19:34:32
(UTC+00:00)

H-2A R/B (2) - Pass Details

Date: 05 July 2022
Orbit: 428 x 34396 km, 28.9° (Epoch: 07 August)

Event Time Altitude Azimuth Distance (km) Brightness Sun altitude
Exits shadow 09:42:25 - 208° (SSW) 20,174 8.6 -17.9°
Reaches altitude 10° 09:58:00 10° 206° (SSW) 22,613 8.9 -15.5°
Maximum altitude 18:22:56 76° 182° (S) 2,802 8.3 79.5°
Drops below altitude 10° 18:30:28 10° 97° (E) 3,152 5.3 79.6°
Sets 18:31:57 0° 95° (E) 3,677 5.5 79.6°
